Skip Page Navigation
NASA JPL Caltech
NASA Logo - Jet Propulsion Laboratory + View the NASA Portal
+ Center for Near-Earth Object Studies
JPL Home Earth Solar System Stars & Galaxies Technology
JPL Solar System Dynamics
BODIES ORBITS EPHEMERIDES TOOLS PHYSICAL DATA DISCOVERY FAQ SITE MAP
JPL Small-Body Database Browser
Search: [ help ]  
24792 (1993 TB46)
Classification: Main-belt Asteroid          SPK-ID: 2024792
Ephemeris | Orbit Diagram | Orbital Elements | Mission Design | Physical Parameters | Discovery Circumstances | Close-Approach Data ]

[ show orbit diagram ]
Orbital Elements at Epoch 2459200.5 (2020-Dec-17.0) TDB
Reference: JPL 28 (heliocentric ecliptic J2000)
 Element Value Uncertainty (1-sigma)   Units 
e .1920778601032809 3.417e-08  
a 3.09215338818323 1.5395e-08 au
q 2.498219182269886 1.0704e-07 au
i .7757199627478815 3.9625e-06 deg
node 355.5414982354021 0.00025385 deg
peri 1.827993680899471 0.00025413 deg
M 18.935115887765 9.458e-06 deg
tp 2459096.038697315792
(2020-Sep-03.53869732)
5.2319e-05 TDB
period 1986.049052417698
5.44
1.4832e-05
4.061e-08
d
yr
n .1812644051070931 1.3537e-09 deg/d
Q 3.686087594096575 1.8352e-08 au
  Orbit Determination Parameters
   # obs. used (total)      962  
   data-arc span      9970 days (27.30 yr)  
   first obs. used      1993-09-19  
   last obs. used      2021-01-05  
   planetary ephem.      DE441  
   SB-pert. ephem.      SB441-N16  
   condition code      0  
   norm. resid. RMS      .48465  
   source      ORB  
   producer      Otto Matic  
   solution date      2021-Apr-13 04:49:23  

Additional Information
 Earth MOID = 1.49256 au 
 Jupiter MOID = 1.76494 au 
 T_jup = 3.196 
[ show covariance matrix ]

Ephemeris | Orbit Diagram | Orbital Elements | Mission Design | Physical Parameters | Discovery Circumstances | Close-Approach Data ]

Physical Parameter Table
Parameter Symbol Value Units Sigma Reference Notes
absolute magnitude H 15.02   n/a E2021B10  

24792 (1993 TB46)          Discovered 1993-Oct-10 by Debehogne, H. at La Silla
Reference: 20010606/Numbers.arcLast Updated: 2004-04-19

[ show close-approach data ]
Alternate Designations
 1993 TB46 = 2001 DA103 
Ephemeris | Orbit Diagram | Orbital Elements | Mission Design | Physical Parameters | Discovery Circumstances | Close-Approach Data ]
ABOUT SSD CREDITS/AWARDS PRIVACY/COPYRIGHT GLOSSARY LINKS
FirstGov 2021-Jun-19 22:56 UT
(server date/time)  
NASA Home Page
Site Manager:   Ryan S. Park
Webmaster  Alan B. Chamberlin